Regional Weather Roundup
Issued by NWS Portland, ME

Current Version | Previous Version | Text Only | Print | Product List | Glossary On
Versions: 1 2 3 4 5 6 7 8 9 10 11 12 13 14 15 16 17 18 19 20 21 22 23 24 25 26 27 28 29 30 31 32 33 34 35 36 37 38 39 40 41 42 43 44 45 46 47 48 49 50
000
ASUS41 KGYX 260110
RWRGYX
WEATHER ROUNDUP FOR MAINE AND NEW HAMPSHIRE
NATIONAL WEATHER SERVICE GRAY ME
900 PM EDT SAT OCT 25 2014

MEZ002-005-006-010-012-015-018-020-021-024-026-027-029-260200-
MAINE

CITY           SKY/WX    TMP DP  RH WIND       PRES   REMARKS
PORTLAND       CLOUDY    51  48  89 SW3       29.51F
SANFORD        CLOUDY    50  43  76 SW5       29.53F
BAR HARBOR     MOCLDY    46  45  93 CALM      29.54F
WISCASSET      MOCLDY    46  44  93 CALM      29.52F
ROCKLAND       CLOUDY    48  45  87 S5        29.51F
FRYEBURG       CLOUDY    53  41  63 W5        29.51F
LEWISTONAUBURN CLOUDY    48  39  71 S5        29.49F
AUGUSTA        CLOUDY    50  41  71 SE3       29.51F
WATERVILLE     CLOUDY    50  39  66 CALM      29.47F
BANGOR         CLOUDY    48  43  82 S5        29.52F
GREENVILLE       N/A     45  35  68 SE8       29.46F
MILLINOCKET    CLOUDY    41  39  93 CALM      29.53F
HOULTON        PTCLDY    40  39  97 W3        29.51F FOG
PRESQUE ISLE   MOCLDY    41  37  87 CALM      29.51F
FRENCHVILLE    CLOUDY    40  39  97 SE8       29.50F
CARIBOU        CLOUDY    43  40  89 E3        29.51F
$$

NHZ002-005-008-009-011-012-014-260200-
NEW HAMPSHIRE

CITY           SKY/WX    TMP DP  RH WIND       PRES   REMARKS
PORTSMOUTH     CLOUDY    56  44  65 SW3       29.53F
ROCHESTER      CLOUDY    54  43  66 CALM      29.53F
NASHUA         MOCLDY    55  45  69 CALM      29.55F
MANCHESTER     CLOUDY    57  43  59 S5        29.53F
CONCORD        CLOUDY    54  43  66 S3        29.53F
LACONIA        CLOUDY    54  43  66 SW6       29.51F
PLYMOUTH       LGT RAIN  50  50 100 CALM      29.51F
BERLIN         LGT RAIN  47  46  97 CALM      29.49F
WHITEFIELD     LGT RAIN  48  45  89 CALM      29.49F
JAFFREY        PTCLDY    45  43  93 S3        29.55F
LEBANON        LGT RAIN  54  46  74 SW3       29.51F
MT WASHINGTON  SNOWSHWR  30  30 100 NW38        N/A  VSB 0   WCI  14
$$

VTZ005-007-008-260200-
VERMONT

CITY           SKY/WX    TMP DP  RH WIND       PRES   REMARKS
ST JOHNSBURY     N/A     49  48  97 MISG      29.48F
MONTPELIER     LGT RAIN  49  46  90 W3        29.52F FOG
BURLINGTON     LGT RAIN  53  48  83 VRB5      29.48S
$$

MAZ007-012-024-CTZ003-RIZ002-NYZ038-NYZ072-260200-
SOUTHERN NEW ENGLAND AND NY

CITY           SKY/WX    TMP DP  RH WIND       PRES   REMARKS
BOSTON         CLOUDY    57  45  64 SW8       29.57F
WORCESTER      MOCLDY    49  42  77 SW9       29.57F
NANTUCKET      CLEAR     58  51  78 W14       29.62F
PROVIDENCE     CLOUDY    58  46  64 W10       29.60F
HARTFORD       MOCLDY    58  42  55 S6        29.56F
ALBANY         MOCLDY    54  47  77 VRB3      29.55R
NEW YORK CITY  PTCLDY    64  43  46 SW14      29.61F
$$

ANZ081-ANZ082-ANZ150-NHZ014-MEZ023>029-260200-
COASTAL MARINE OBSERVATIONS

STATION/POSITION TIME  TEMP    WIND        PRES    WAVE
                       AIR SEA DIR/SP/G            HT/PER
                 (UTC) (F)     (DEG/KT/KT) (MB)    (FT/S)
MATINICUS ROCK   0100          180/ 16/ 18  999.2F
PORTLAND WX BUOY 0050   55 53  230/ 10/ 12  999.2F   2/ 8
WELLS            0000   55 53  270/  4/  6  999.4F
ISLE OF SHOALS   0100   56     240/ 15/ 15  999.6F
JEFFREYS LEDGE   0021      56                N/A     2/ 8
CASHES LEDGE BUO 0050   55 54  160/ 10/ 10  999.8F   2/ 8
$$

.............KEY..............
   WCI - WIND CHILL
   TC  - TEMPERATURE IN CELSIUS
   VSB - VISIBILITY IN MILES
   HX  - HEAT INDEX
   FAIR- INDICATES FEW OR NO CLOUDS BELOW 12,000 FT, WITH NO
         SIGNIFICANT WEATHER AND/OR OBSTRUCTIONS TO VISIBILITY.





USA.gov is the U.S. government's official web portal to all federal, state and local government web resources and services.